User: anonymous   Login
Location: Unspecified
(0.0000°N, 0.0000°E)
Time: 06:26:38
(UTC+02:00)
Language:

Cosmos 1703 Rocket - Orbit

View from above orbital plane
View from above orbital plane
View from above satellite
View from above satellite

Ground track
Ground track

The orbit data is extracted from the following two-line orbital elements,

1 16263U 85108B   15088.16006363  .00000608  00000-0  72207-4 0  9993
2 16263 082.5053 155.0420 0021399 135.9215 283.0202 14.82704328584193
Epoch (UTC): 29 March 2015 03:50:29
Eccentricity: 0.0021399
inclination: 82.5053°
perigee height: 606 km
apogee height: 636 km
right ascension of ascending node: 155.0420°
argument of perigee: 135.9215°
revolutions per day: 14.82704328
mean anomaly at epoch: 283.0202°
orbit number at epoch: 58419

The dashed part of the orbit path shows where the satellite is in the earth's shadow,  

DLR